Location: All Nations United Methodist Church
(33.0215°N, 96.7483°W)
Time: 15:34:28
(UTC+00:00)

CENTAUR R/B - Pass Details

Date: 24 January 2021
Orbit: 742 x 1446 km, 63.5° (Epoch: 06 March)

Event Time Altitude Azimuth Distance (km) Brightness Sun altitude
Rises 12:58:27 0° 232° (SW) 3,304 5.0 -6.4°
Reaches altitude 10° 13:00:54 10° 241° (WSW) 2,444 4.2 -5.9°
Maximum altitude 13:06:07 38° 309° (NW) 1,374 2.9 -4.9°
Drops below altitude 10° 13:12:14 10° 16° (NNE) 2,859 4.9 -3.7°
Sets 13:15:20 0° 24° (NNE) 3,939 5.7 -3.1°
